1500494400.68,24692,21.38,74402.8,5.17,-9.11,-8.17,0,*72
1500494401.92,24693,21.38,74398.0,5.17,-9.05,-8.03,0,*73
1500494403.16,24694,21.38,74402.3,5.17,-9.05,-7.99,0,*78
1500494404.4,24695,21.38,74402.8,5.17,-9.05,-8.11,0,*76
1500494405.64,24696,21.38,74398.8,5.17,-9.11,-8.17,0,*76
1500494406.91,24697,21.38,74400.0,5.17,-9.11,-8.11,0,*71
1500494408.13,24698,21.38,74398.5,5.17,-9.05,-8.17,0,*7D
1500494409.37,24699,21.38,74400.3,5.17,-9.05,-8.11,0,*7A
1500494410.61,24700,21.38,74398.8,5.17,-9.05,-8.11,0,*7B
1500494411.85,24701,21.38,74402.0,5.17,-9.19,-8.11,0,*77
1500494413.09,24702,21.38,74400.8,5.17,-8.97,-8.11,0,*73
1500494414.35,24703,21.38,74400.8,5.17,-9.11,-8.11,0,*7D
1500494415.57,24704,21.38,74400.3,5.17,-9.05,-8.17,0,*79
1500494416.8,24705,21.38,74400.3,5.17,-8.97,-8.03,0,*77
1500494418.02,24706,21.38,74398.5,5.19,-9.11,-8.25,0,*71
1500494419.21,24707,21.38,74396.8,5.19,-9.19,-8.17,0,*79
1500494420.48,24708,21.38,74400.8,5.17,-9.11,-8.11,0,*76
1500494421.69,24709,21.38,74400.0,5.17,-9.05,-8.17,0,*74
1500494422.91,24710,21.38,74400.8,5.19,-9.05,-8.11,0,*74
1500494424.12,24711,21.38,74400.3,5.19,-9.05,-8.03,0,*76
1500494425.33,24712,21.38,74402.0,5.19,-8.97,-8.03,0,*7F
1500494426.55,24713,21.38,74396.0,5.19,-9.05,-8.03,0,*74
1500494427.79,24714,21.38,74398.5,5.19,-9.11,-8.11,0,*75
1500494429.03,24715,21.38,74400.0,5.19,-9.11,-8.03,0,*77
1500494430.25,24716,21.38,74398.3,5.19,-9.05,-8.03,0,*71
1500494431.47,24717,21.38,74396.8,5.19,-9.11,-8.17,0,*70
1500494432.71,24718,21.38,74402.5,5.21,-9.01,-8.07,0,*74
1500494433.95,24719,21.38,74402.5,5.21,-8.93,-7.99,0,*77
1500494435.17,24720,21.38,74400.8,5.19,-9.05,-8.03,0,*74
1500494436.38,24721,21.38,74398.3,5.19,-8.97,-7.99,0,*73
1500494437.6,24722,21.38,74400.0,5.19,-9.05,-8.11,0,*75
1500494438.84,24723,21.38,74398.5,5.21,-9.01,-7.99,0,*74
1500494440.07,24724,21.38,74400.5,5.21,-9.05,-8.03,0,*7B
1500494441.29,24725,21.38,74400.0,5.19,-8.97,-7.91,0,*7F
1500494442.5,24726,21.38,74400.8,5.19,-9.05,-7.99,0,*7E
1500494443.73,24727,21.38,74400.0,5.19,-8.93,-7.91,0,*79
1500494444.94,24728,21.38,74398.8,5.21,-8.93,-7.83,0,*7E
1500494446.16,24729,21.38,74396.0,5.19,-8.97,-7.99,0,*7B
1500494447.38,24730,21.38,74398.8,5.19,-8.93,-7.91,0,*7F
1500494448.62,24731,21.38,74400.0,5.21,-9.01,-7.99,0,*77
1500494449.85,24732,21.38,74396.8,5.21,-8.81,-7.87,0,*72
1500494451.07,24733,21.38,74400.8,5.19,-8.93,-7.99,0,*74
1500494452.32,24734,21.38,74400.0,5.21,-9.01,-8.07,0,*7A
1500494453.54,24735,21.38,74400.0,5.19,-8.93,-7.95,0,*7E
1500494454.77,24736,21.38,74400.8,5.21,-8.81,-7.83,0,*72
1500494456.01,24737,21.38,74396.8,5.21,-8.93,-7.95,0,*77
1500494457.25,24738,21.38,74398.3,5.21,-8.93,-7.99,0,*74
1500494458.49,24739,21.38,74400.5,5.21,-8.89,-7.95,0,*72
1500494459.72,24740,21.38,74396.3,5.21,-8.93,-7.95,0,*77
1500494460.94,24741,21.38,74400.0,5.21,-8.89,-7.87,0,*7E
1500494462.16,24742,21.38,74398.5,5.21,-8.89,-7.83,0,*79
1500494463.4,24743,21.38,74402.0,5.21,-8.89,-7.95,0,*7F
1500494464.64,24744,21.38,74400.0,5.21,-8.93,-7.99,0,*7F
1500494465.85,24745,21.38,74402.8,5.21,-8.89,-7.87,0,*7A
1500494467.09,24746,21.38,74400.0,5.21,-8.89,-7.95,0,*7A
1500494468.33,24747,21.38,74398.5,5.21,-9.01,-7.99,0,*76
1500494469.56,24748,21.38,74402.0,5.25,-9.01,-8.07,0,*75
1500494470.78,24749,21.38,74402.5,5.23,-9.05,-7.99,0,*7E
1500494471.99,24750,21.38,74398.5,5.23,-9.05,-7.99,0,*76
1500494473.21,24751,21.38,74400.3,5.23,-8.93,-7.99,0,*79
1500494474.42,24752,21.38,74398.8,5.23,-8.93,-7.95,0,*76
1500494475.62,24753,21.38,74402.8,5.25,-8.85,-7.83,0,*71
1500494476.83,24754,21.38,74402.0,5.23,-8.81,-7.83,0,*74
1500494478.04,24755,21.38,74400.5,5.23,-8.81,-7.83,0,*75
1500494479.24,24756,21.38,74396.3,5.23,-8.89,-7.87,0,*7A
1500494480.46,24757,21.38,74400.0,5.23,-8.85,-7.91,0,*70
1500494481.66,24758,21.31,74394.8,5.25,-8.85,-7.83,0,*7A
1500494482.87,24759,21.38,74400.5,5.23,-8.81,-7.83,0,*79
1500494484.08,24760,21.38,74402.5,5.25,-8.75,-7.65,0,*76
1500494485.31,24761,21.38,74398.5,5.25,-8.85,-7.77,0,*7B
1500494486.54,24762,21.38,74402.0,5.29,-8.81,-7.77,0,*70
1500494487.76,24763,21.38,74398.5,5.25,-8.89,-7.91,0,*7D
1500494488.99,24764,21.38,74400.3,5.25,-8.85,-7.77,0,*7E
1500494490.19,24765,21.38,74402.0,5.25,-8.89,-7.83,0,*78
1500494491.41,24766,21.38,74400.8,5.25,-8.89,-7.91,0,*78
1500494492.63,24767,21.38,74400.3,5.25,-8.85,-7.77,0,*7D
1500494493.87,24768,21.38,74398.3,5.29,-8.81,-7.77,0,*7A
1500494495.08,24769,21.38,74400.0,5.29,-8.85,-7.77,0,*7F
1500494496.3,24770,21.38,74402.0,5.25,-8.97,-7.95,0,*74
1500494497.52,24771,21.38,74400.0,5.25,-8.89,-7.91,0,*7E
1500494498.73,24772,21.38,74398.0,5.25,-8.89,-7.95,0,*79
1500494499.95,24773,21.38,74396.8,5.25,-8.97,-7.95,0,*77
1500494501.14,24774,21.38,74398.3,5.29,-8.93,-7.87,0,*7B
1500494502.36,24775,21.38,74398.5,5.29,-8.93,-7.99,0,*75
1500494503.55,24776,21.38,74400.3,5.29,-8.85,-7.87,0,*7E
1500494504.78,24777,21.38,74396.8,5.25,-8.85,-7.77,0,*7C
1500494505.99,24778,21.38,74396.5,5.25,-8.75,-7.77,0,*7C
1500494507.23,24779,21.38,74400.0,5.29,-8.81,-7.73,0,*7E
1500494508.47,24780,21.38,74402.3,5.29,-8.81,-7.73,0,*78
1500494509.69,24781,21.38,74402.0,5.29,-8.71,-7.73,0,*76
1500494510.9,24782,21.38,74400.5,5.29,-8.71,-7.73,0,*75
1500494512.12,24783,21.38,74398.3,5.29,-8.59,-7.61,0,*7D
1500494513.36,24784,21.38,74402.5,5.31,-8.67,-7.65,0,*7A
1500494514.58,24785,21.38,74398.5,5.29,-8.71,-7.77,0,*76
1500494515.81,24786,21.38,74400.5,5.29,-8.81,-7.77,0,*7A
1500494517.06,24787,21.38,74400.3,5.31,-8.71,-7.73,0,*79
1500494518.3,24788,21.38,74400.5,5.31,-8.71,-7.65,0,*71
1500494519.54,24789,21.38,74404.0,5.31,-8.67,-7.65,0,*77
1500494520.78,24790,21.38,74396.3,5.31,-8.81,-7.87,0,*7B
1500494522.02,24791,21.38,74400.0,5.29,-8.81,-7.77,0,*7C
1500494523.24,24792,21.38,74398.0,5.29,-8.71,-7.77,0,*70
1500494524.46,24793,21.38,74400.5,5.29,-8.85,-7.73,0,*7E
1500494525.72,24794,21.38,74400.0,5.31,-8.81,-7.77,0,*70
1500494526.98,24795,21.38,74396.8,5.31,-8.81,-7.77,0,*71
1500494528.22,24796,21.38,74402.0,5.31,-8.85,-7.91,0,*7E
1500494529.47,24797,21.38,74404.0,5.31,-8.85,-7.77,0,*77
1500494530.72,24798,21.38,74400.3,5.31,-8.85,-7.77,0,*78
1500494531.98,24799,21.38,74402.8,5.31,-8.81,-7.77,0,*7D
1500494533.23,24800,21.38,74400.0,5.31,-8.85,-7.77,0,*76
1500494534.47,24801,21.38,74400.5,5.31,-8.93,-7.91,0,*78
1500494535.72,24802,21.38,74400.0,5.31,-8.71,-7.77,0,*7F
1500494536.96,24803,21.38,74400.3,5.31,-8.71,-7.73,0,*7A
1500494538.2,24804,21.38,74402.8,5.29,-8.81,-7.77,0,*7F
1500494539.42,24805,21.38,74402.0,5.29,-8.71,-7.73,0,*75
1500494540.68,24806,21.38,74402.8,5.31,-8.81,-7.73,0,*70
1500494541.93,24807,21.38,74402.0,5.31,-8.71,-7.65,0,*79
1500494543.17,24808,21.38,74400.8,5.31,-8.85,-7.77,0,*7E
1500494544.44,24809,21.38,74402.0,5.31,-8.81,-7.77,0,*7B
1500494545.65,24810,21.38,74400.5,5.33,-8.75,-7.73,0,*7E
1500494546.91,24811,21.38,74400.0,5.31,-8.81,-7.73,0,*76
1500494548.17,24812,21.38,74404.0,5.31,-8.81,-7.77,0,*71
1500494549.44,24813,21.38,74402.5,5.31,-8.81,-7.77,0,*70
1500494550.68,24814,21.38,74402.3,5.31,-8.71,-7.73,0,*7C
1500494551.9,24815,21.38,74402.0,5.33,-8.75,-7.73,0,*7B
1500494553.09,24816,21.38,74402.3,5.33,-8.75,-7.83,0,*77
1500494554.3,24817,21.38,74402.5,5.33,-8.67,-7.73,0,*7A
1500494555.49,24818,21.38,74402.8,5.33,-8.89,-7.87,0,*7E
1500494556.73,24819,21.38,74398.5,5.31,-8.81,-7.87,0,*75
1500494557.96,24820,21.38,74402.5,5.31,-8.93,-7.87,0,*7C
1500494559.2,24821,21.38,74400.8,5.31,-8.93,-7.99,0,*72
1500494560.44,24822,21.38,74400.0,5.31,-9.05,-8.03,0,*73
1500494561.68,24823,21.38,74402.5,5.31,-8.93,-7.99,0,*70
1500494562.92,24824,21.38,74400.5,5.31,-8.93,-7.91,0,*7F
1500494564.13,24825,21.38,74402.3,5.29,-8.97,-8.03,0,*77
1500494565.38,24826,21.38,74400.3,5.31,-8.85,-7.91,0,*7A
1500494566.62,24827,21.38,74402.8,5.31,-8.85,-7.91,0,*7B
1500494567.87,24828,21.38,74398.8,5.31,-8.71,-7.77,0,*77
1500494569.08,24829,21.38,74400.5,5.29,-8.71,-7.65,0,*7C
1500494570.33,24830,21.38,74400.8,5.31,-8.71,-7.73,0,*7A
1500494571.59,24831,21.38,74406.0,5.31,-8.81,-7.77,0,*70
1500494572.84,24832,21.38,74400.5,5.31,-8.93,-7.91,0,*78
1500494574.08,24833,21.38,74400.5,5.31,-8.85,-7.91,0,*7E
1500494575.31,24834,21.38,74406.3,5.31,-8.85,-7.87,0,*7E
1500494576.55,24835,21.38,74400.5,5.31,-8.71,-7.77,0,*7B
1500494577.79,24836,21.38,74402.3,5.31,-8.93,-8.03,0,*78
1500494579.04,24837,21.38,74404.0,5.31,-8.85,-7.91,0,*7A
1500494580.28,24838,21.38,74400.0,5.31,-8.71,-7.77,0,*76
1500494581.53,24839,21.38,74402.5,5.31,-8.71,-7.77,0,*77
1500494582.75,24840,21.31,74400.0,5.31,-8.93,-7.87,0,*7A
1500494583.99,24841,21.38,74402.8,5.31,-8.85,-7.91,0,*7B
1500494585.21,24842,21.31,74402.3,5.29,-8.71,-7.73,0,*76
1500494586.48,24843,21.38,74404.0,5.31,-8.81,-7.77,0,*75
1500494587.74,24844,21.38,74402.0,5.31,-8.81,-7.73,0,*76
1500494589.0,24845,21.38,74400.5,5.31,-8.81,-7.77,0,*73
1500494590.24,24846,21.38,74404.0,5.31,-8.85,-7.91,0,*7C
1500494591.44,24847,21.38,74404.0,5.33,-8.89,-7.83,0,*70
1500494592.68,24848,21.38,74402.8,5.31,-8.67,-7.65,0,*75
1500494593.94,24849,21.38,74400.3,5.31,-8.81,-7.77,0,*7F
1500494595.19,24850,21.38,74400.5,5.31,-8.71,-7.77,0,*78
1500494596.41,24851,21.38,74402.8,5.31,-8.85,-7.87,0,*7D
1500494597.63,24852,21.31,74400.3,5.31,-8.93,-7.87,0,*79
1500494598.9,24853,21.38,74402.8,5.31,-8.81,-7.77,0,*74
1500494600.14,24854,21.38,74406.0,5.31,-8.71,-7.61,0,*7B
1500494601.41,24855,21.38,74404.0,5.31,-8.81,-7.77,0,*72
1500494602.61,24856,21.38,74400.8,5.33,-8.67,-7.69,0,*74
1500494603.85,24857,21.38,74404.5,5.35,-8.63,-7.69,0,*77
1500494605.07,24858,21.38,74402.5,5.33,-8.75,-7.73,0,*72
1500494606.26,24859,21.31,74398.5,5.33,-8.75,-7.83,0,*7C
1500494607.47,24860,21.38,74402.8,5.33,-8.75,-7.73,0,*79
1500494608.68,24861,21.38,74404.3,5.33,-8.81,-7.83,0,*7C
1500494609.9,24862,21.38,74404.5,5.33,-8.67,-7.73,0,*78
1500494611.11,24863,21.38,74402.8,5.33,-8.75,-7.73,0,*7A
1500494612.36,24864,21.38,74402.0,5.31,-8.71,-7.65,0,*7C
1500494613.62,24865,21.31,74402.0,5.31,-8.81,-7.77,0,*71
1500494614.83,24866,21.38,74404.5,5.33,-8.75,-7.73,0,*7F
1500494616.04,24867,21.38,74402.8,5.33,-8.67,-7.69,0,*76
1500494617.25,24868,21.38,74400.5,5.33,-8.67,-7.69,0,*79
1500494618.46,24869,21.38,74402.0,5.33,-8.67,-7.57,0,*75
1500494619.67,24870,21.38,74402.0,5.33,-8.67,-7.69,0,*70
1500494620.91,24871,21.38,74400.5,5.33,-8.51,-7.43,0,*7C
1500494622.13,24872,21.38,74402.5,5.33,-8.63,-7.61,0,*7E
1500494623.37,24873,21.38,74402.3,5.35,-8.55,-7.57,0,*79
1500494624.59,24874,21.38,74402.3,5.33,-8.63,-7.57,0,*7D
1500494625.78,24875,21.38,74402.3,5.33,-8.63,-7.49,0,*73
1500494626.99,24876,21.38,74402.8,5.33,-8.63,-7.69,0,*72
1500494628.2,24877,21.38,74402.8,5.33,-8.67,-7.73,0,*7C
1500494629.42,24878,21.38,74404.0,5.33,-8.67,-7.61,0,*70
1500494630.63,24879,21.38,74404.8,5.33,-8.81,-7.83,0,*75
1500494631.85,24880,21.38,74402.3,5.35,-8.75,-7.83,0,*7E
1500494633.06,24881,21.38,74402.3,5.33,-8.67,-7.73,0,*75
1500494634.28,24882,21.38,74402.8,5.33,-8.67,-7.61,0,*75
1500494635.48,24883,21.38,74402.5,5.33,-8.67,-7.69,0,*7C
1500494636.7,24884,21.38,74402.8,5.33,-8.67,-7.57,0,*76
1500494637.88,24885,21.38,74402.3,5.33,-8.55,-7.49,0,*79
1500494639.1,24886,21.38,74402.5,5.33,-8.55,-7.57,0,*75
1500494640.29,24887,21.38,74400.8,5.33,-8.55,-7.49,0,*7B
1500494641.56,24888,21.38,74404.5,5.35,-8.51,-7.43,0,*7C
1500494642.81,24889,21.38,74402.8,5.35,-8.55,-7.43,0,*79
1500494644.03,24890,21.38,74402.5,5.35,-8.63,-7.49,0,*7E
1500494645.24,24891,21.38,74404.0,5.35,-8.63,-7.49,0,*7F
1500494646.49,24892,21.38,74406.5,5.35,-8.55,-7.43,0,*73
1500494647.74,24893,21.38,74406.0,5.35,-8.55,-7.43,0,*72
1500494648.98,24894,21.38,74404.0,5.33,-8.51,-7.43,0,*77
1500494650.2,24895,21.38,74404.0,5.33,-8.63,-7.57,0,*72
1500494651.44,24896,21.31,74400.5,5.35,-8.63,-7.57,0,*77
1500494652.66,24897,21.38,74400.5,5.35,-8.63,-7.49,0,*79
1500494653.93,24898,21.38,74404.0,5.35,-8.51,-7.31,0,*78
1500494655.15,24899,21.38,74404.5,5.35,-8.55,-7.49,0,*72
1500494656.36,24900,21.38,74402.0,5.35,-8.55,-7.49,0,*73
1500494657.55,24901,21.38,74404.0,5.33,-8.63,-7.49,0,*71
1500494658.77,24902,21.38,74400.5,5.35,-8.63,-7.49,0,*74
1500494659.98,24903,21.38,74406.0,5.35,-8.63,-7.49,0,*75
1500494661.23,24904,21.38,74404.0,5.35,-8.63,-7.43,0,*78
1500494662.48,24905,21.31,74400.5,5.35,-8.55,-7.43,0,*7C
1500494663.72,24906,21.31,74400.0,5.35,-8.51,-7.49,0,*71
1500494664.94,24907,21.38,74406.5,5.35,-8.55,-7.49,0,*74
1500494666.16,24908,21.38,74404.8,5.37,-8.59,-7.43,0,*7F
1500494667.37,24909,21.38,74406.0,5.37,-8.59,-7.57,0,*7B
1500494668.56,24910,21.38,74406.8,5.41,-8.55,-7.49,0,*71
1500494669.77,24911,21.31,74402.5,5.37,-8.51,-7.53,0,*7E
1500494671.02,24912,21.38,74406.8,5.35,-8.63,-7.61,0,*7F
1500494672.26,24913,21.38,74404.0,5.35,-8.67,-7.57,0,*7F
1500494673.48,24914,21.38,74404.8,5.37,-8.59,-7.43,0,*72
1500494674.73,24915,21.38,74406.5,5.37,-8.51,-7.43,0,*7B
1500494675.94,24916,21.38,74408.8,5.37,-8.45,-7.35,0,*7C
1500494677.16,24917,21.31,74400.0,5.37,-8.59,-7.57,0,*74
1500494678.37,24918,21.31,74400.8,5.37,-8.63,-7.69,0,*7F
1500494679.59,24919,21.38,74406.0,5.37,-8.63,-7.65,0,*72
1500494680.8,24920,21.38,74404.5,5.37,-8.63,-7.57,0,*79
1500494682.02,24921,21.38,74404.5,5.37,-8.63,-7.65,0,*79
1500494683.24,24922,21.38,74404.0,5.37,-8.63,-7.65,0,*7A
1500494684.46,24923,21.38,74404.0,5.37,-8.71,-7.77,0,*7B
1500494685.68,24924,21.38,74404.8,5.37,-8.71,-7.69,0,*73
1500494686.92,24925,21.38,74404.5,5.35,-8.75,-7.69,0,*74
1500494688.15,24926,21.31,74400.5,5.35,-8.67,-7.69,0,*74
1500494689.39,24927,21.38,74404.3,5.35,-8.67,-7.69,0,*75
1500494690.63,24928,21.38,74404.5,5.35,-8.67,-7.57,0,*77
1500494691.85,24929,21.38,74404.3,5.37,-8.59,-7.43,0,*7C
1500494693.07,24930,21.38,74408.0,5.37,-8.63,-7.57,0,*78
1500494694.28,24931,21.38,74406.0,5.37,-8.59,-7.57,0,*70
1500494695.5,24932,21.38,74404.5,5.37,-8.71,-7.65,0,*78
1500494696.72,24933,21.31,74402.8,5.37,-8.71,-7.65,0,*79
1500494697.91,24934,21.38,74404.5,5.37,-8.59,-7.53,0,*71
1500494699.12,24935,21.38,74404.5,5.37,-8.51,-7.53,0,*78
1500494700.34,24936,21.38,74404.5,5.37,-8.59,-7.57,0,*77
1500494701.55,24937,21.31,74400.8,5.37,-8.63,-7.57,0,*7F
1500494702.77,24938,21.31,74400.8,5.37,-8.63,-7.57,0,*70
1500494703.99,24939,21.38,74406.5,5.37,-8.63,-7.57,0,*71
1500494705.18,24940,21.38,74404.3,5.37,-8.63,-7.53,0,*7B
1500494706.42,24941,21.38,74406.5,5.35,-8.63,-7.57,0,*7C
1500494707.66,24942,21.38,74404.8,5.35,-8.75,-7.69,0,*75
1500494708.9,24943,21.38,74404.8,5.35,-8.67,-7.69,0,*77
1500494710.14,24944,21.38,74404.8,5.35,-8.67,-7.61,0,*78
1500494711.38,24945,21.38,74404.8,5.35,-8.67,-7.57,0,*7C
1500494712.63,24946,21.38,74406.5,5.35,-8.63,-7.57,0,*7B
1500494713.87,24947,21.38,74404.0,5.35,-8.67,-7.69,0,*73
1500494715.11,24948,21.38,74404.8,5.35,-8.67,-7.57,0,*71
1500494716.33,24949,21.38,74404.3,5.33,-8.55,-7.43,0,*72
1500494717.54,24950,21.38,74404.3,5.33,-8.51,-7.49,0,*74
1500494718.79,24951,21.31,74402.8,5.35,-8.63,-7.43,0,*78
1500494720.01,24952,21.31,74400.3,5.35,-8.55,-7.49,0,*74
1500494721.28,24953,21.38,74406.3,5.35,-8.51,-7.43,0,*7B
1500494722.52,24954,21.31,74404.5,5.35,-8.41,-7.27,0,*7F
1500494723.77,24955,21.38,74406.5,5.35,-8.41,-7.27,0,*7E
1500494724.98,24956,21.31,74402.0,5.37,-8.37,-7.27,0,*7E
1500494726.2,24957,21.31,74404.0,5.37,-8.45,-7.39,0,*75
1500494727.41,24958,21.31,74400.5,5.37,-8.59,-7.43,0,*7A
1500494728.64,24959,21.38,74404.5,5.37,-8.71,-7.65,0,*75
1500494729.88,24960,21.38,74406.0,5.35,-8.75,-7.61,0,*7D
1500494731.12,24961,21.38,74406.3,5.35,-8.67,-7.57,0,*7A
1500494732.31,24962,21.38,74406.3,5.37,-8.63,-7.53,0,*7B
1500494733.53,24963,21.31,74406.5,5.37,-8.63,-7.65,0,*7F
1500494734.77,24964,21.38,74404.8,5.35,-8.67,-7.61,0,*7A
1500494736.01,24965,21.38,74406.3,5.35,-8.67,-7.61,0,*7B
1500494737.23,24966,21.38,74406.3,5.33,-8.75,-7.61,0,*7D
1500494738.47,24967,21.31,74406.8,5.35,-8.67,-7.61,0,*79
1500494739.66,24968,21.31,74404.8,5.37,-8.63,-7.53,0,*71
1500494740.88,24969,21.38,74404.3,5.35,-8.63,-7.49,0,*79
1500494742.09,24970,21.31,74404.0,5.35,-8.63,-7.49,0,*71
1500494743.34,24971,21.38,74406.0,5.35,-8.63,-7.61,0,*7A
1500494744.59,24972,21.31,74406.3,5.35,-8.63,-7.57,0,*7C
1500494745.83,24973,21.31,74406.5,5.35,-8.63,-7.61,0,*78
1500494747.08,24974,21.31,74404.8,5.35,-8.63,-7.57,0,*7A
1500494748.33,24975,21.38,74406.0,5.35,-8.55,-7.43,0,*7B
1500494749.54,24976,21.31,74404.0,5.33,-8.51,-7.49,0,*70
1500494750.78,24977,21.31,74404.5,5.35,-8.67,-7.57,0,*7D
1500494752.03,24978,21.31,74400.8,5.35,-8.63,-7.57,0,*76
1500494753.27,24979,21.31,74402.8,5.35,-8.63,-7.57,0,*77
1500494754.49,24980,21.31,74406.5,5.35,-8.63,-7.49,0,*7E
1500494755.73,24981,21.31,74402.3,5.35,-8.63,-7.43,0,*75
1500494756.95,24982,21.38,74404.8,5.35,-8.55,-7.49,0,*79
1500494758.14,24983,21.31,74404.3,5.33,-8.63,-7.49,0,*7B
1500494759.36,24984,21.31,74404.0,5.35,-8.55,-7.49,0,*7F
1500494760.6,24985,21.38,74404.5,5.35,-8.63,-7.57,0,*74
1500494761.85,24986,21.31,74404.3,5.35,-8.67,-7.61,0,*76
1500494763.06,24987,21.31,74404.5,5.37,-8.63,-7.57,0,*74
1500494764.28,24988,21.38,74404.8,5.37,-8.59,-7.43,0,*77
1500494765.53,24989,21.38,74406.3,5.35,-8.55,-7.43,0,*78
1500494766.78,24990,21.31,74406.3,5.35,-8.63,-7.61,0,*75
1500494768.02,24991,21.38,74408.0,5.35,-8.63,-7.57,0,*71
1500494769.23,24992,21.31,74404.8,5.37,-8.51,-7.53,0,*75
1500494770.45,24993,21.38,74406.5,5.37,-8.59,-7.57,0,*78
1500494771.67,24994,21.38,74406.3,5.37,-8.59,-7.57,0,*7F
1500494772.88,24995,21.38,74404.0,5.37,-8.51,-7.53,0,*72
1500494774.09,24996,21.38,74404.8,5.37,-8.59,-7.57,0,*7D
1500494775.28,24997,21.31,74406.3,5.37,-8.59,-7.53,0,*78
1500494776.49,24998,21.31,74406.3,5.37,-8.51,-7.53,0,*7F
1500494777.7,24999,21.38,74404.0,5.37,-8.59,-7.57,0,*72
1500494778.95,25000,21.31,74404.0,5.35,-8.63,-7.61,0,*74
1500494780.2,25001,21.31,74406.3,5.35,-8.67,-7.61,0,*71
1500494781.44,25002,21.38,74404.8,5.35,-8.67,-7.61,0,*72
1500494782.69,25003,21.31,74406.0,5.35,-8.63,-7.61,0,*77
1500494783.9,25004,21.38,74404.8,5.37,-8.59,-7.43,0,*7B
1500494785.15,25005,21.31,74406.0,5.35,-8.63,-7.57,0,*74
1500494786.37,25006,21.31,74402.0,5.37,-8.63,-7.57,0,*75
1500494787.61,25007,21.31,74404.5,5.35,-8.67,-7.61,0,*77
1500494788.85,25008,21.38,74406.8,5.35,-8.67,-7.57,0,*7D
1500494790.09,25009,21.31,74406.8,5.35,-8.75,-7.69,0,*72
1500494791.33,25010,21.31,74404.0,5.35,-8.75,-7.73,0,*71
1500494792.6,25011,21.38,74406.0,5.35,-8.81,-7.73,0,*7B
1500494793.84,25012,21.31,74402.3,5.35,-8.67,-7.57,0,*76
1500494795.11,25013,21.31,74406.0,5.35,-8.81,-7.73,0,*79
1500494796.35,25014,21.38,74406.8,5.35,-8.67,-7.61,0,*75
1500494797.59,25015,21.31,74404.3,5.35,-8.67,-7.57,0,*71
1500494798.81,25016,21.31,74406.5,5.33,-8.67,-7.57,0,*74
1500494800.05,25017,21.31,74404.5,5.35,-8.67,-7.57,0,*73
1500494801.26,25018,21.31,74404.3,5.33,-8.67,-7.57,0,*7A
1500494802.51,25019,21.38,74406.0,5.35,-8.55,-7.43,0,*79
1500494803.72,25020,21.31,74406.8,5.35,-8.63,-7.49,0,*7C
1500494804.96,25021,21.31,74404.8,5.35,-8.63,-7.69,0,*7F
1500494806.21,25022,21.31,74404.0,5.35,-8.55,-7.61,0,*71
1500494807.46,25023,21.31,74404.3,5.35,-8.63,-7.57,0,*70
1500494808.67,25024,21.31,74404.3,5.33,-8.63,-7.57,0,*71
1500494809.92,25025,21.31,74404.0,5.35,-8.67,-7.61,0,*77
1500494811.13,25026,21.31,74406.5,5.33,-8.67,-7.61,0,*72
1500494812.37,25027,21.31,74406.8,5.35,-8.67,-7.57,0,*70
1500494813.61,25028,21.31,74404.5,5.35,-8.67,-7.69,0,*72
1500494814.86,25029,21.31,74404.3,5.35,-8.67,-7.61,0,*7B
1500494816.04,25030,21.31,74402.3,5.33,-8.55,-7.49,0,*7E
1500494817.26,25031,21.31,74406.5,5.35,-8.55,-7.49,0,*79
1500494818.45,25032,21.38,74410.0,5.33,-8.63,-7.49,0,*79
1500494819.69,25033,21.31,74406.8,5.35,-8.55,-7.57,0,*74
1500494820.91,25034,21.31,74404.8,5.33,-8.55,-7.43,0,*70
1500494822.18,25035,21.31,74404.3,5.35,-8.51,-7.43,0,*73
1500494823.46,25036,21.38,74406.3,5.35,-8.51,-7.43,0,*70
1500494824.7,25037,21.31,74400.0,5.35,-8.55,-7.57,0,*70
1500494825.95,25038,21.31,74402.8,5.35,-8.63,-7.43,0,*7F
1500494827.17,25039,21.38,74408.8,5.33,-8.55,-7.43,0,*7D
1500494828.41,25040,21.38,74408.3,5.35,-8.41,-7.31,0,*75
1500494829.68,25041,21.31,74404.8,5.35,-8.51,-7.27,0,*72
1500494830.92,25042,21.38,74404.3,5.35,-8.41,-7.27,0,*70
1500494832.17,25043,21.31,74400.8,5.35,-8.37,-7.27,0,*70
1500494833.41,25044,21.31,74406.5,5.35,-8.41,-7.31,0,*71
1500494834.66,25045,21.31,74400.5,5.35,-8.55,-7.31,0,*75
1500494835.92,25046,21.31,74404.3,5.35,-8.51,-7.31,0,*72
1500494837.17,25047,21.31,74402.0,5.35,-8.63,-7.43,0,*77
1500494838.42,25048,21.38,74406.3,5.35,-8.55,-7.43,0,*7D
1500494839.69,25049,21.31,74402.5,5.35,-8.51,-7.31,0,*7D
1500494840.94,25050,21.31,74404.0,5.35,-8.63,-7.43,0,*71
1500494842.18,25051,21.31,74404.5,5.35,-8.55,-7.43,0,*75
1500494843.38,25052,21.38,74404.8,5.37,-8.37,-7.23,0,*76
1500494844.59,25053,21.38,74406.8,5.35,-8.29,-7.15,0,*7F
1500494845.81,25054,21.31,74404.8,5.35,-8.41,-7.19,0,*7A
1500494847.06,25055,21.31,74406.0,5.35,-8.41,-7.31,0,*71
1500494848.3,25056,21.31,74406.5,5.35,-8.41,-7.27,0,*75
1500494849.49,25057,21.31,74406.0,5.37,-8.37,-7.23,0,*73
1500494850.68,25058,21.31,74404.0,5.37,-8.33,-7.23,0,*78
1500494851.92,25059,21.38,74404.0,5.37,-8.51,-7.39,0,*76
1500494853.14,25060,21.31,74404.5,5.37,-8.45,-7.39,0,*79
1500494854.38,25061,21.31,74406.3,5.37,-8.51,-7.39,0,*7D
1500494855.57,25062,21.38,74406.5,5.37,-8.37,-7.23,0,*75
1500494856.82,25063,21.31,74406.5,5.37,-8.51,-7.27,0,*70
1500494858.03,25064,21.31,74406.5,5.37,-8.59,-7.43,0,*7D
1500494859.23,25065,21.31,74402.0,5.37,-8.37,-7.23,0,*72
1500494860.41,25066,21.31,74404.3,5.37,-8.33,-7.23,0,*75
1500494861.61,25067,21.31,74406.3,5.37,-8.37,-7.23,0,*70
1500494862.83,25068,21.31,74402.8,5.37,-8.59,-7.43,0,*71
1500494864.07,25069,21.31,74404.0,5.37,-8.51,-7.39,0,*75
1500494865.31,25070,21.31,74404.5,5.37,-8.51,-7.39,0,*7D
1500494866.53,25071,21.31,74406.0,5.37,-8.45,-7.27,0,*76
1500494867.72,25072,21.31,74404.0,5.37,-8.45,-7.23,0,*71
1500494868.94,25073,21.31,74400.3,5.37,-8.45,-7.27,0,*74
1500494870.12,25074,21.31,74400.5,5.41,-8.33,-7.19,0,*7E
1500494871.33,25075,21.38,74406.3,5.37,-8.45,-7.27,0,*72
1500494872.55,25076,21.38,74406.3,5.37,-8.45,-7.39,0,*7E
1500494873.77,25077,21.31,74406.5,5.37,-8.45,-7.39,0,*7F
1500494874.98,25078,21.31,74404.3,5.37,-8.45,-7.27,0,*7F
1500494876.2,25079,21.31,74406.3,5.37,-8.51,-7.23,0,*7F
1500494877.42,25080,21.31,74404.5,5.37,-8.37,-7.27,0,*7D
1500494878.63,25081,21.31,74404.0,5.37,-8.45,-7.39,0,*76
1500494879.87,25082,21.31,74406.5,5.37,-8.51,-7.39,0,*70
1500494881.07,25083,21.31,74402.3,5.37,-8.37,-7.23,0,*7A
1500494882.26,25084,21.31,74400.0,5.37,-8.45,-7.23,0,*78
1500494883.46,25085,21.31,74404.5,5.37,-8.37,-7.23,0,*7C
1500494884.65,25086,21.31,74404.3,5.37,-8.25,-7.23,0,*7C
1500494885.84,25087,21.31,74404.0,5.37,-8.33,-7.23,0,*7A
1500494887.03,25088,21.31,74404.0,5.37,-8.25,-7.23,0,*72
1500494888.25,25089,21.31,74406.8,5.41,-8.37,-7.27,0,*75
1500494889.43,25090,21.31,74406.3,5.41,-8.33,-7.23,0,*7D
1500494890.65,25091,21.31,74404.0,5.37,-8.45,-7.27,0,*78
1500494891.83,25092,21.31,74402.8,5.37,-8.33,-7.23,0,*7E
1500494893.02,25093,21.31,74402.5,5.41,-8.33,-7.19,0,*77
1500494894.21,25094,21.31,74404.5,5.37,-8.37,-7.23,0,*7C
1500494895.42,25095,21.31,74406.5,5.37,-8.45,-7.39,0,*73
1500494896.64,25096,21.31,74404.0,5.37,-8.45,-7.27,0,*7F
1500494897.82,25097,21.31,74406.5,5.41,-8.33,-7.19,0,*73
1500494899.02,25098,21.31,74406.5,5.37,-8.37,-7.23,0,*70
1500494900.2,25099,21.31,74404.0,5.41,-8.33,-7.19,0,*7D
1500494901.39,25100,21.31,74404.3,5.37,-8.41,-7.19,0,*78
1500494902.58,25101,21.31,74406.3,5.37,-8.33,-7.23,0,*75
1500494903.77,25102,21.31,74404.0,5.37,-8.21,-7.19,0,*7C
1500494904.96,25103,21.31,74402.3,5.41,-8.17,-7.11,0,*71
1500494906.15,25104,21.31,74404.3,5.37,-8.25,-7.11,0,*76
1500494907.34,25105,21.31,74402.3,5.41,-8.29,-7.11,0,*7A
1500494908.53,25106,21.31,74404.3,5.37,-8.37,-7.15,0,*73
1500494909.72,25107,21.31,74404.8,5.41,-8.33,-7.19,0,*7B
1500494910.91,25108,21.31,74406.5,5.41,-8.41,-7.23,0,*78
1500494912.09,25109,21.31,74400.5,5.41,-8.29,-7.19,0,*7E
1500494913.28,25110,21.31,74406.5,5.41,-8.29,-7.19,0,*76
1500494914.46,25111,21.31,74404.3,5.41,-8.33,-7.19,0,*7C
1500494915.65,25112,21.31,74404.3,5.41,-8.41,-7.23,0,*73